Terminal Aerodrome Forecast
Issued by NWS Sioux Falls, SD

Home | Current Version | Previous Version | Graphics & Text | Print | Product List | Glossary On
Versions: 1 2 3 4 5 6 7 8 9 10 11 12 13 14 15 16 17 18 19 20 21 22 23 24 25
000
FTUS43 KFSD 202300
TAFFSD
TAF
KFSD 202339Z 2100/2124 19013KT P6SM SCT029
     FM210130 17010KT P6SM SKC
     FM211000 15007KT 5SM BR SCT004 BKN008
     FM211500 16008KT P6SM SCT008 BKN015
     FM211800 16011KT P6SM FEW022
     FM212000 17013G20KT P6SM BKN200=

USA.gov is the U.S. government's official web portal to all federal, state and local government web resources and services.